weather.gov     
National Weather Service

Terminal Aerodrome Forecast
NWS Homepage
This page is being discontinued on March 12, 2014.
The same data is available at this site. Please update your bookmarks.
Thank you, and we apologize for the inconvenience.
Please send an email to SR-SRH.Webmaster@noaa.gov with any concerns.


Current Version
Previous Version:    01  02  03  04  05  06  07  08  09  10  11  12  13  14  
[Printable]
292
FTUS41 KBOX 211729
TAFBOS
TAF
KBOS 211729Z 2118/2224 01006KT P6SM OVC015
      TEMPO 2118/2122 4SM -SHSN
     FM220000 03009KT P6SM OVC015
     FM220500 02007KT P6SM OVC035
     FM221200 01006KT P6SM OVC015
     FM221800 05007KT P6SM OVC015=




292
FTUS41 KBOX 211729
TAFBOS
TAF
KBOS 211729Z 2118/2224 01006KT P6SM OVC015
      TEMPO 2118/2122 4SM -SHSN
     FM220000 03009KT P6SM OVC015
     FM220500 02007KT P6SM OVC035
     FM221200 01006KT P6SM OVC015
     FM221800 05007KT P6SM OVC015=


U.S. Dept. of Commerce
NOAA National Weather Service
1325 East West Highway
Silver Spring, MD 20910
E-mail: w-nws.webmaster@noaa.gov
Page last modified: May 16, 2007
NATIONAL WEATHER SERVICE: for Safety, for Work, for Fun - FOR LIFE